Location: Arboucave
(43.6130°N, 0.4343°W)
Time: 12:16:01
(UTC+00:00)

Cosmos 2344 - Pass Details

Date: 17 November 2025
Orbit: 1197 x 3045 km, 63.3° (Epoch: 10 December)

Event Time Altitude Azimuth Distance (km) Brightness Sun altitude
Rises 18:33:00 0° 323° (NW) 4,204 6.7 -21.3°
Reaches altitude 10° 18:35:37 10° 328° (NNW) 3,324 6.1 -21.8°
Maximum altitude 18:43:25 54° 46° (NE) 1,816 4.0 -23.2°
Enters shadow 18:47:33 35° 104° (ESE) 2,513 4.6 -23.9°
